Regional Weather Roundup
Issued by NWS

Home | Current Version | Previous Version | Text Only | Print | Product List | Glossary Off
Versions: 1 2 3 4 5 6 7 8 9 10 11 12 13 14 15 16 17 18 19 20 21 22 23 24 25 26 27 28 29 30 31 32 33 34 35 36 37 38 39 40 41 42 43 44 45 46 47 48 49 50

000
ASUS43 KDTX 230010
RWRMI
MICHIGAN HOURLY REGIONAL WEATHER ROUNDUP
NATIONAL WEATHER SERVICE DETROIT/PONTIAC MI
800 PM EDT WED OCT 22 2014

NOTE: "FAIR" INDICATES FEW OR NO CLOUDS BELOW 12,000 FEET WITH NO
SIGNIFICANT WEATHER AND/OR OBSTRUCTION TO VISIBILITY.

MIZ047>049-052>055-059>063-066>070-074>076-081>083-230100-
SOUTHEAST LOWER MICHIGAN

CITY           SKY/WX    TMP DP  RH WIND       PRES   REMARKS
ADRIAN           N/A     46  39  76 N6        30.29S
6HR MIN TEMP:  46; 6HR MAX TEMP:  54;

ALMA           CLOUDY    45  38  76 CALM      30.31F
6HR MIN TEMP:  45; 6HR MAX TEMP:  48;

ANN ARBOR      CLEAR     47  38  71 N8        30.28S
BAD AXE        CLEAR     36  35  96 CALM      30.32S
6HR MIN TEMP:  36; 6HR MAX TEMP:  50;

DETROIT CITY   CLEAR     50  38  63 N5        30.29S
6HR MIN TEMP:  50; 6HR MAX TEMP:  59;

DETROIT        PTCLDY    48  39  71 N5        30.29R
6HR MIN TEMP:  48; 6HR MAX TEMP:  58;

FLINT          CLEAR     45  37  73 N3        30.32S
6HR MIN TEMP:  45; 6HR MAX TEMP:  52;

GROSSE ILE     CLEAR     50  41  71 N5        30.27S
HILLSDALE      CLEAR     37  36  96 CALM      30.29S
6HR MIN TEMP:  37; 6HR MAX TEMP:  48;

HOWELL         CLEAR     42  37  83 CALM      30.29F
6HR MIN TEMP:  41; 6HR MAX TEMP:  50;


CITY           SKY/WX    TMP DP  RH WIND       PRES   REMARKS
JACKSON        CLEAR     39  37  92 CALM      30.29F
6HR MIN TEMP:  39; 6HR MAX TEMP:  49;

LAMBERTVILLE   CLOUDY    46  43  87 CALM      30.28S
LANSING        CLOUDY    45  38  76 NE3       30.32R
6HR MIN TEMP:  45; 6HR MAX TEMP:  48;

LAPEER         NOT AVBL
MASON          CLOUDY    42  37  84 CALM      30.30S
MONROE         CLEAR     46  39  76 CALM      30.26F
MT. CLEMENS    PTCLDY    44  39  83 NE10      30.26R
6HR MIN TEMP:  44; 6HR MAX TEMP:  56;

PONTIAC        MOCLDY    46  39  76 N8        30.28S
6HR MIN TEMP:  45; 6HR MAX TEMP:  53;

PORT HOPE        N/A     45  38  76 NE10      30.30F
6HR MIN TEMP:  45; 6HR MAX TEMP:  50;

PORT HURON     CLEAR     43  39  87 N6        30.29F
TRI CITIES     CLOUDY    47  37  68 N6        30.33S
6HR MIN TEMP:  47; 6HR MAX TEMP:  49;

YPSILANTI      CLEAR     48  38  68 N7        30.29S
6HR MIN TEMP:  48; 6HR MAX TEMP:  61;

$$
MIZ043>046-050>051-056>058-064>065-071>073-077>080-230100-
SOUTHWEST LOWER MICHIGAN

CITY           SKY/WX    TMP DP  RH WIND       PRES   REMARKS
BATTLE CREEK   CLOUDY    46  38  73 N5        30.30S
6HR MIN TEMP:  46; 6HR MAX TEMP:  49;

BENTON HARBOR  CLEAR     39  37  92 CALM      30.29S
6HR MIN TEMP:  39; 6HR MAX TEMP:  52;

BIG RAPIDS     CLEAR     39  36  86 CALM      30.29S
6HR MIN TEMP:  39; 6HR MAX TEMP:  50;

COLDWATER      CLOUDY    45  39  81 CALM      30.30S
6HR MIN TEMP:  44; 6HR MAX TEMP:  48;

HOLLAND        CLEAR     46  38  73 CALM      30.30S
6HR MIN TEMP:  46; 6HR MAX TEMP:  56;

GRAND RAPIDS   CLEAR     42  36  79 SE5       30.30F
6HR MIN TEMP:  42; 6HR MAX TEMP:  50;

KALAMAZOO      CLEAR     43  37  79 CALM      30.30S
6HR MIN TEMP:  42; 6HR MAX TEMP:  51;

MARSHALL       CLOUDY    44  37  78 CALM      30.29F
MUSKEGON       PTCLDY    41  35  79 CALM      30.30S
6HR MIN TEMP:  41; 6HR MAX TEMP:  54;

$$
MIZ016>042-230100-
NORTHERN LOWER MICHIGAN

CITY           SKY/WX    TMP DP  RH WIND       PRES   REMARKS
ALPENA         CLEAR     38  32  79 CALM      30.31S
6HR MIN TEMP:  38; 6HR MAX TEMP:  53;

BEAVER ISLAND  FOG       34  33  97 CALM      30.30F VSB 1/2
6HR MIN TEMP:  34; 6HR MAX TEMP:  48;

BELLAIRE       CLEAR     36  34  91 CALM      30.30S
CADILLAC       CLEAR     36  32  85 CALM      30.27F
CHARLEVOIX     CLEAR     37  35  95 CALM      30.33S
6HR MIN TEMP:  36; 6HR MAX TEMP:  49;

FRANKFORT      CLEAR     36  32  87 CALM      30.29S
GAYLORD        CLEAR     39  32  76 SW3       30.28S
6HR MIN TEMP:  38; 6HR MAX TEMP:  51;

GRAYLING       CLEAR     34  32  92 CALM      30.30S
6HR MIN TEMP:  34; 6HR MAX TEMP:  49;

HARBOR SPRINGS CLEAR     41  35  79 N3        30.30S
HOUGHTON LAKE  CLEAR     36  33  89 CALM      30.30S
6HR MIN TEMP:  36; 6HR MAX TEMP:  49;

MANISTEE       CLEAR     37  30  75 CALM      30.30S
OSCODA         CLEAR     37  34  90 CALM      30.30F
PELLSTON       CLEAR     37  33  85 CALM      30.31R
6HR MIN TEMP:  36; 6HR MAX TEMP:  51;

TRAVERSE CITY  PTCLDY    39  33  79 CALM      30.29S
6HR MIN TEMP:  39; 6HR MAX TEMP:  49;

$$
MIZ007>008-015-230100-
EASTERN UPPER MICHIGAN

CITY           SKY/WX    TMP DP  RH WIND       PRES   REMARKS
KINROSS        CLEAR     39  36  87 S3        30.30S
6HR MIN TEMP:  39; 6HR MAX TEMP:  50;

MACKINAC ISLAN CLEAR     41  33  72 SE7       30.30S
6HR MIN TEMP:  41; 6HR MAX TEMP:  46;

NEWBERRY       CLEAR     36  32  84 S5        30.28S
S. S. MARIE    CLEAR     41  30  65 S3        30.28F
6HR MIN TEMP:  41; 6HR MAX TEMP:  50;

$$
MIZ004>006-011>014-085-230100-
CENTRAL UPPER MICHIGAN

CITY           SKY/WX    TMP DP  RH WIND       PRES   REMARKS
MANISTIQUE     CLEAR     37  34  89 SE6       30.28F
ESCANABA       CLEAR     43  34  70 SE8       30.27S
6HR MIN TEMP:  41; 6HR MAX TEMP:  46;

MENOMINEE      CLEAR     43  36  75 S6        30.26F
6HR MIN TEMP:  43; 6HR MAX TEMP:  48;

SAWYER-GWINN   CLEAR     41  34  75 S10       30.23S
$$
MIZ001>003-009>011-084-230100-
WESTERN UPPER MICHIGAN

CITY           SKY/WX    TMP DP  RH WIND       PRES   REMARKS
IRON MOUNTAIN  CLEAR     42  34  73 SE7       30.22F
6HR MIN TEMP:  42; 6HR MAX TEMP:  52;

HOUGHTON       CLEAR     45  34  65 SE8       30.16F
6HR MIN TEMP:  45; 6HR MAX TEMP:  51;

COPPER HARBOR    N/A     48  38  68 VRB5      30.18R
6HR MIN TEMP:  48; 6HR MAX TEMP:  50;

IRONWOOD       CLEAR     52  28  40 SE8       30.09F
6HR MIN TEMP:  52; 6HR MAX TEMP:  57;

$$

ABBREVIATIONS USED IN REMARKS
   TC - TEMPERATURE IN CELSIUS
  WCI - WIND CHILL INDEX
   HX - HEAT INDEX
  VSB - VISIBILITY




USA.gov is the U.S. government's official web portal to all federal, state and local government web resources and services.